06-02-2023, 00:00:01,    339,    0.0,   -2.0,   0.00,   0.00, 1038.3,    0.2, -999.0
06-02-2023, 00:00:08,    339,    0.0,   -2.0,   0.00,   0.00, 1038.2,    0.1, -999.0
06-02-2023, 00:00:18,    339,    0.0,   -2.0,   0.00,   0.00, 1038.2,    0.1, -999.0
06-02-2023, 00:00:28,    339,    0.0,   -2.0,   0.00,   0.00, 1038.2,    0.1, -999.0
06-02-2023, 00:00:38,    339,    0.0,   -2.0,   0.00,   0.00, 1038.3,    0.0, -999.0
06-02-2023, 00:00:48,    339,    0.0,   -2.0,   0.00,   0.00, 1038.2,    0.0, -999.0
06-02-2023, 00:00:58,    339,    0.0,   -2.0,   0.00,   0.00, 1038.2,    0.2, -999.0
06-02-2023, 00:01:08,    339,    0.0,   -2.1,   0.00,   0.00, 1038.2,    0.1, -999.0
06-02-2023, 00:01:18,    339,    0.0,   -2.0,   0.00,   0.00, 1038.2,    0.1, -999.0
06-02-2023, 00:01:28,    339,    0.0,   -2.1,   0.00,   0.00, 1038.2,    0.0, -999.0
06-02-2023, 00:01:38,    339,    0.0,   -2.1,   0.00,   0.00, 1038.2,    0.1, -999.0
06-02-2023, 00:01:48,    339,    0.0,   -2.1,   0.00,   0.00, 1038.2,    0.2, -999.0
06-02-2023, 00:01:58,    339,    0.0,   -2.1,   0.00,   0.00, 1038.2,    0.3, -999.0
06-02-2023, 00:02:08,    339,    0.0,   -2.2,   0.00,   0.00, 1038.2,    0.1, -999.0
06-02-2023, 00:02:18,    339,    0.0,   -2.1,   0.00,   0.00, 1038.2,    0.1, -999.0
06-02-2023, 00:02:28,    339,    0.0,   -2.1,   0.00,   0.00, 1038.2,    0.2, -999.0
06-02-2023, 00:02:38,    339,    0.0,   -2.2,   0.00,   0.00, 1038.2,    0.1, -999.0
06-02-2023, 00:02:48,    339,    0.0,   -2.4,   0.00,   0.00, 1038.2,    0.0, -999.0
06-02-2023, 00:02:58,    339,    0.0,   -2.2,   0.00,   0.00, 1038.2,    0.1, -999.0
06-02-2023, 00:03:08,    339,    0.0,   -2.2,   0.00,   0.00, 1038.2,    0.2, -999.0
06-02-2023, 00:03:18,    339,    0.0,   -2.2,   0.00,   0.00, 1038.2,    0.1, -999.0
06-02-2023, 00:03:28,    339,    0.0,   -2.1,   0.00,   0.00, 1038.2,    0.3, -999.0
06-02-2023, 00:03:38,    339,    0.0,   -2.2,   0.00,   0.00, 1038.2,    0.0, -999.0
06-02-2023, 00:03:48,    339,    0.0,   -2.2,   0.00,   0.00, 1038.2,    0.1, -999.0
06-02-2023, 00:03:58,    339,    0.0,   -2.2,   0.00,   0.00, 1038.2,    0.1, -999.0
06-02-2023, 00:04:08,    339,    0.0,   -2.2,   0.00,   0.00, 1038.2,    0.1, -999.0
06-02-2023, 00:04:18,    339,    0.0,   -2.2,   0.00,   0.00, 1038.2,    0.2, -999.0
06-02-2023, 00:04:27,    339,    0.0,   -2.3,   0.00,   0.00, 1038.2,    0.4, -999.0
06-02-2023, 00:04:38,    339,    0.0,   -2.2,   0.00,   0.00, 1038.2,    0.0, -999.0
06-02-2023, 00:04:48,    339,    0.0,   -2.4,   0.00,   0.00, 1038.2,    0.0, -999.0
06-02-2023, 00:04:58,    339,    0.0,   -2.3,   0.00,   0.00, 1038.2,    0.1, -999.0
06-02-2023, 00:05:07,    339,    0.0,   -2.4,   0.00,   0.00, 1038.2,    0.1, -999.0
06-02-2023, 00:05:18,    339,    0.0,   -2.3,   0.00,   0.00, 1038.2,    0.1, -999.0
06-02-2023, 00:05:28,    339,    0.0,   -2.3,   0.00,   0.00, 1038.2,    0.2, -999.0
06-02-2023, 00:05:37,    339,    0.0,   -2.3,   0.00,   0.00, 1038.2,    0.1, -999.0
06-02-2023, 00:05:47,    339,    0.0,   -2.3,   0.00,   0.00, 1038.2,    0.1, -999.0
06-02-2023, 00:05:58,    339,    0.0,   -2.3,   0.00,   0.00, 1038.2,    0.1, -999.0
06-02-2023, 00:06:08,    339,    0.0,   -2.4,   0.00,   0.00, 1038.2,    0.2, -999.0
06-02-2023, 00:06:17,    339,    0.0,   -2.4,   0.00,   0.00, 1038.2,    0.1, -999.0
06-02-2023, 00:06:27,    338,    0.0,   -2.4,   0.00,   0.00, 1038.2,    0.0, -999.0
06-02-2023, 00:06:38,    339,    0.0,   -2.4,   0.00,   0.00, 1038.2,    0.1, -999.0
06-02-2023, 00:06:47,    339,    0.0,   -2.4,   0.00,   0.00, 1038.2,    0.1, -999.0
06-02-2023, 00:06:57,    339,    0.0,   -2.4,   0.00,   0.00, 1038.2,    0.1, -999.0
06-02-2023, 00:07:08,    339,    0.0,   -2.4,   0.00,   0.00, 1038.2,    0.1, -999.0
06-02-2023, 00:07:17,    339,    0.0,   -2.4,   0.00,   0.00, 1038.2,    0.0, -999.0
06-02-2023, 00:07:27,    339,    0.0,   -2.4,   0.00,   0.00, 1038.2,    0.1, -999.0
06-02-2023, 00:07:37,    339,    0.0,   -2.4,   0.00,   0.00, 1038.2,    0.2, -999.0
06-02-2023, 00:07:48,    339,    0.0,   -2.5,   0.00,   0.00, 1038.2,    0.1, -999.0
06-02-2023, 00:07:57,    339,    0.0,   -2.4,   0.00,   0.00, 1038.2,    0.1, -999.0
06-02-2023, 00:08:07,    339,    0.0,   -2.4,   0.00,   0.00, 1038.2,    0.1, -999.0
06-02-2023, 00:08:17,    339,    0.0,   -2.4,   0.00,   0.00, 1038.2,    0.1, -999.0
06-02-2023, 00:08:27,    339,    0.0,   -2.4,   0.00,   0.00, 1038.2,    0.1, -999.0
06-02-2023, 00:08:37,    339,    0.0,   -2.5,   0.00,   0.00, 1038.2,    0.1, -999.0
06-02-2023, 00:08:47,    339,    0.0,   -2.4,   0.00,   0.00, 1038.2,    0.2, -999.0
06-02-2023, 00:08:57,    339,    0.0,   -2.3,   0.00,   0.00, 1038.2,    0.2, -999.0
06-02-2023, 00:09:07,    339,    0.0,   -2.4,   0.00,   0.00, 1038.2,    0.1, -999.0
06-02-2023, 00:09:17,    339,    0.0,   -2.4,   0.00,   0.00, 1038.2,    0.2, -999.0
06-02-2023, 00:09:27,    339,    0.0,   -2.4,   0.00,   0.00, 1038.2,    0.0, -999.0
06-02-2023, 00:09:37,    339,    0.0,   -2.3,   0.00,   0.00, 1038.2,    0.1, -999.0
06-02-2023, 00:09:47,    339,    0.0,   -2.4,   0.00,   0.00, 1038.1,    0.2, -999.0
06-02-2023, 00:09:57,    339,    0.0,   -2.3,   0.00,   0.00, 1038.1,    0.1, -999.0
06-02-2023, 00:10:07,    339,    0.0,   -2.3,   0.00,   0.00, 1038.1,    0.0, -999.0
06-02-2023, 00:10:17,    339,    0.0,   -2.5,   0.00,   0.00, 1038.1,    0.1, -999.0
06-02-2023, 00:10:27,    339,    0.0,   -2.4,   0.00,   0.00, 1038.1,    0.0, -999.0
06-02-2023, 00:10:37,    339,    0.0,   -2.5,   0.00,   0.00, 1038.1,    0.1, -999.0
06-02-2023, 00:10:47,    339,    0.0,   -2.6,   0.00,   0.00, 1038.1,    0.1, -999.0
06-02-2023, 00:10:57,    339,    0.0,   -2.5,   0.00,   0.00, 1038.1,    0.2, -999.0
06-02-2023, 00:11:07,    340,    0.0,   -2.5,   0.00,   0.00, 1038.1,    0.1, -999.0
06-02-2023, 00:11:17,    339,    0.0,   -2.5,   0.00,   0.00, 1038.1,    0.0, -999.0
06-02-2023, 00:11:27,    337,    0.0,   -2.6,   0.00,   0.00, 1038.1,    0.1, -999.0
06-02-2023, 00:11:37,    339,    0.0,   -2.5,   0.00,   0.00, 1038.1,    0.2, -999.0
06-02-2023, 00:11:47,    342,    0.0,   -2.5,   0.00,   0.00, 1038.1,    0.2, -999.0
06-02-2023, 00:11:57,    339,    0.0,   -2.5,   0.00,   0.00, 1038.1,    0.1, -999.0
06-02-2023, 00:12:07,    339,    0.0,   -2.6,   0.00,   0.00, 1038.1,    0.1, -999.0
06-02-2023, 00:12:17,    339,    0.0,   -2.5,   0.00,   0.00, 1038.1,    0.1, -999.0
06-02-2023, 00:12:27,    339,    0.0,   -2.7,   0.00,   0.00, 1038.1,    0.1, -999.0
06-02-2023, 00:12:37,    339,    0.0,   -2.5,   0.00,   0.00, 1038.1,    0.1, -999.0
06-02-2023, 00:12:47,    339,    0.0,   -2.6,   0.00,   0.00, 1038.1,    0.0, -999.0
06-02-2023, 00:12:57,    339,    0.0,   -2.6,   0.00,   0.00, 1038.1,    0.1, -999.0
06-02-2023, 00:13:07,    339,    0.0,   -2.5,   0.00,   0.00, 1038.1,    0.1, -999.0
06-02-2023, 00:13:17,    336,    0.0,   -2.4,   0.00,   0.00, 1038.1,    0.1, -999.0
06-02-2023, 00:13:27,    339,    0.0,   -2.4,   0.00,   0.00, 1038.1,    0.1, -999.0
06-02-2023, 00:13:37,    339,    0.0,   -2.5,   0.00,   0.00, 1038.1,    0.2, -999.0
06-02-2023, 00:13:47,    339,    0.0,   -2.5,   0.00,   0.00, 1038.1,    0.0, -999.0
06-02-2023, 00:13:57,    339,    0.0,   -2.5,   0.00,   0.00, 1038.1,    0.1, -999.0
06-02-2023, 00:14:07,    339,    0.0,   -2.5,   0.00,   0.00, 1038.1,    0.2, -999.0
06-02-2023, 00:14:17,    339,    0.0,   -2.5,   0.00,   0.00, 1038.1,    0.1, -999.0
06-02-2023, 00:14:27,    339,    0.0,   -2.5,   0.00,   0.00, 1038.1,    0.1, -999.0
06-02-2023, 00:14:37,    339,    0.0,   -2.6,   0.00,   0.00, 1038.1,    0.1, -999.0
06-02-2023, 00:14:47,    339,    0.0,   -2.6,   0.00,   0.00, 1038.1,    0.2, -999.0
06-02-2023, 00:14:57,    339,    0.0,   -2.5,   0.00,   0.00, 1038.1,    0.1, -999.0
06-02-2023, 00:15:07,    339,    0.0,   -2.5,   0.00,   0.00, 1038.0,    0.1, -999.0
06-02-2023, 00:15:17,    339,    0.0,   -2.5,   0.00,   0.00, 1038.1,    0.3, -999.0
06-02-2023, 00:15:26,    339,    0.0,   -2.5,   0.00,   0.00, 1038.1,    0.1, -999.0
06-02-2023, 00:15:37,    339,    0.0,   -2.5,   0.00,   0.00, 1038.1,    0.3, -999.0
06-02-2023, 00:15:47,    339,    0.0,   -2.5,   0.00,   0.00, 1038.1,    0.2, -999.0
06-02-2023, 00:15:57,    339,    0.0,   -2.5,   0.00,   0.00, 1038.0,    0.0, -999.0
06-02-2023, 00:16:06,    339,    0.0,   -2.5,   0.00,   0.00, 1038.0,    0.1, -999.0
06-02-2023, 00:16:17,    339,    0.0,   -2.5,   0.00,   0.00, 1038.1,    0.0, -999.0
06-02-2023, 00:16:27,    339,    0.0,   -2.5,   0.00,   0.00, 1038.1,    0.1, -999.0
06-02-2023, 00:16:36,    339,    0.0,   -2.5,   0.00,   0.00, 1038.0,    0.1, -999.0
06-02-2023, 00:16:46,    339,    0.0,   -2.6,   0.00,   0.00, 1038.1,    0.1, -999.0
06-02-2023, 00:16:57,    339,    0.0,   -2.8,   0.00,   0.00, 1038.1,    0.0, -999.0
06-02-2023, 00:17:07,    339,    0.0,   -2.6,   0.00,   0.00, 1038.1,    0.1, -999.0
06-02-2023, 00:17:16,    339,    0.0,   -2.5,   0.00,   0.00, 1038.1,    0.2, -999.0
06-02-2023, 00:17:26,    339,    0.0,   -2.7,   0.00,   0.00, 1038.1,    0.0, -999.0
06-02-2023, 00:17:37,    339,    0.0,   -2.7,   0.00,   0.00, 1038.0,    0.2, -999.0
06-02-2023, 00:17:46,    339,    0.0,   -2.7,   0.00,   0.00, 1038.1,    0.0, -999.0
06-02-2023, 00:17:56,    339,    0.0,   -2.6,   0.00,   0.00, 1038.1,    0.0, -999.0
06-02-2023, 00:18:06,    339,    0.0,   -2.7,   0.00,   0.00, 1038.1,    0.0, -999.0
06-02-2023, 00:18:17,    339,    0.0,   -2.6,   0.00,   0.00, 1038.1,    0.0, -999.0
06-02-2023, 00:18:26,    339,    0.0,   -2.6,   0.00,   0.00, 1038.1,    0.2, -999.0
06-02-2023, 00:18:36,    339,    0.0,   -2.6,   0.00,   0.00, 1038.1,    0.1, -999.0
06-02-2023, 00:18:46,    337,    0.0,   -2.6,   0.00,   0.00, 1038.1,    0.0, -999.0
06-02-2023, 00:18:56,    339,    0.0,   -2.6,   0.00,   0.00, 1038.1,    0.1, -999.0
06-02-2023, 00:19:06,    339,    0.0,   -2.6,   0.00,   0.00, 1038.1,    0.1, -999.0
06-02-2023, 00:19:16,    339,    0.0,   -2.7,   0.00,   0.00, 1038.1,    0.0, -999.0
06-02-2023, 00:19:26,    339,    0.0,   -2.6,   0.00,   0.00, 1038.1,    0.1, -999.0
06-02-2023, 00:19:36,    339,    0.0,   -2.6,   0.00,   0.00, 1038.2,    0.0, -999.0
06-02-2023, 00:19:46,    339,    0.0,   -2.5,   0.00,   0.00, 1038.2,    0.1, -999.0
06-02-2023, 00:19:56,    339,    0.0,   -2.4,   0.00,   0.00, 1038.1,    0.1, -999.0
06-02-2023, 00:20:06,    339,    0.0,   -2.4,   0.00,   0.00, 1038.1,    0.2, -999.0
06-02-2023, 00:20:16,    339,    0.0,   -2.4,   0.00,   0.00, 1038.2,    0.1, -999.0
06-02-2023, 00:20:26,    339,    0.0,   -2.4,   0.00,   0.00, 1038.2,    0.1, -999.0
06-02-2023, 00:20:36,    339,    0.0,   -2.4,   0.00,   0.00, 1038.2,    0.1, -999.0
06-02-2023, 00:20:46,    339,    0.0,   -2.5,   0.00,   0.00, 1038.2,    0.1, -999.0
06-02-2023, 00:20:56,    339,    0.0,   -2.3,   0.00,   0.00, 1038.1,    0.1, -999.0
06-02-2023, 00:21:06,    339,    0.0,   -2.4,   0.00,   0.00, 1038.1,    0.1, -999.0
06-02-2023, 00:21:16,    338,    0.0,   -2.4,   0.00,   0.00, 1038.2,    0.0, -999.0
06-02-2023, 00:21:26,    339,    0.0,   -2.4,   0.00,   0.00, 1038.2,    0.1, -999.0
06-02-2023, 00:21:36,    339,    0.0,   -2.4,   0.00,   0.00, 1038.2,    0.1, -999.0
06-02-2023, 00:21:46,    339,    0.0,   -2.3,   0.00,   0.00, 1038.2,    0.1, -999.0
06-02-2023, 00:21:56,    339,    0.0,   -2.4,   0.00,   0.00, 1038.2,    0.0, -999.0
06-02-2023, 00:22:06,    339,    0.0,   -2.5,   0.00,   0.00, 1038.2,    0.1, -999.0
06-02-2023, 00:22:16,    339,    0.0,   -2.4,   0.00,   0.00, 1038.2,    0.2, -999.0
06-02-2023, 00:22:26,    339,    0.0,   -2.6,   0.00,   0.00, 1038.2,    0.1, -999.0
06-02-2023, 00:22:36,    339,    0.0,   -2.5,   0.00,   0.00, 1038.2,    0.1, -999.0
06-02-2023, 00:22:46,    338,    0.0,   -2.5,   0.00,   0.00, 1038.2,    0.2, -999.0
06-02-2023, 00:22:56,    339,    0.0,   -2.6,   0.00,   0.00, 1038.1,    0.1, -999.0
06-02-2023, 00:23:06,    339,    0.0,   -2.6,   0.00,   0.00, 1038.2,    0.0, -999.0
06-02-2023, 00:23:16,    339,    0.0,   -2.7,   0.00,   0.00, 1038.2,    0.1, -999.0
06-02-2023, 00:23:26,    339,    0.0,   -2.6,   0.00,   0.00, 1038.2,    0.0, -999.0
06-02-2023, 00:23:36,    339,    0.0,   -2.7,   0.00,   0.00, 1038.2,    0.2, -999.0
06-02-2023, 00:23:46,    339,    0.0,   -2.7,   0.00,   0.00, 1038.2,    0.2, -999.0
06-02-2023, 00:23:56,    339,    0.0,   -2.7,   0.00,   0.00, 1038.2,    0.2, -999.0
06-02-2023, 00:24:06,    339,    0.0,   -2.8,   0.00,   0.00, 1038.1,    0.2, -999.0
06-02-2023, 00:24:16,    339,    0.0,   -2.7,   0.00,   0.00, 1038.2,    0.1, -999.0
06-02-2023, 00:24:26,    339,    0.0,   -2.7,   0.00,   0.00, 1038.2,    0.1, -999.0
06-02-2023, 00:24:36,    339,    0.0,   -2.7,   0.00,   0.00, 1038.2,    0.1, -999.0
06-02-2023, 00:24:46,    339,    0.0,   -2.8,   0.00,   0.00, 1038.2,    0.2, -999.0
06-02-2023, 00:24:56,    339,    0.0,   -2.8,   0.00,   0.00, 1038.1,    0.1, -999.0
06-02-2023, 00:25:06,    339,    0.0,   -2.7,   0.00,   0.00, 1038.2,    0.0, -999.0
06-02-2023, 00:25:15,    339,    0.0,   -2.7,   0.00,   0.00, 1038.2,    0.2, -999.0
06-02-2023, 00:25:26,    339,    0.0,   -2.7,   0.00,   0.00, 1038.1,    0.0, -999.0
06-02-2023, 00:25:36,    339,    0.0,   -2.7,   0.00,   0.00, 1038.2,    0.2, -999.0
06-02-2023, 00:25:46,    339,    0.0,   -2.7,   0.00,   0.00, 1038.2,    0.1, -999.0
06-02-2023, 00:25:56,    339,    0.0,   -2.8,   0.00,   0.00, 1038.2,    0.2, -999.0
06-02-2023, 00:26:06,    339,    0.0,   -2.7,   0.00,   0.00, 1038.1,    0.1, -999.0
06-02-2023, 00:26:16,    339,    0.0,   -2.7,   0.00,   0.00, 1038.1,    0.1, -999.0
06-02-2023, 00:26:25,    339,    0.0,   -2.8,   0.00,   0.00, 1038.2,    0.2, -999.0
06-02-2023, 00:26:35,    339,    0.0,   -2.7,   0.00,   0.00, 1038.1,    0.1, -999.0
06-02-2023, 00:26:46,    339,    0.0,   -2.7,   0.00,   0.00, 1038.2,    0.0, -999.0
06-02-2023, 00:26:56,    339,    0.0,   -2.7,   0.00,   0.00, 1038.2,    0.3, -999.0
06-02-2023, 00:27:05,    339,    0.0,   -2.7,   0.00,   0.00, 1038.1,    0.1, -999.0
06-02-2023, 00:27:16,    339,    0.0,   -2.7,   0.00,   0.00, 1038.2,    0.0, -999.0
06-02-2023, 00:27:26,    339,    0.0,   -2.7,   0.00,   0.00, 1038.1,    0.3, -999.0
06-02-2023, 00:27:35,    339,    0.0,   -2.7,   0.00,   0.00, 1038.1,    0.1, -999.0
06-02-2023, 00:27:45,    339,    0.0,   -2.8,   0.00,   0.00, 1038.1,    0.1, -999.0
06-02-2023, 00:27:56,    339,    0.0,   -2.9,   0.00,   0.00, 1038.1,    0.2, -999.0
06-02-2023, 00:28:05,    339,    0.0,   -2.6,   0.00,   0.00, 1038.1,    0.0, -999.0
06-02-2023, 00:28:15,    339,    0.0,   -2.8,   0.00,   0.00, 1038.1,    0.1, -999.0
06-02-2023, 00:28:25,    339,    0.0,   -2.8,   0.00,   0.00, 1038.1,    0.0, -999.0
06-02-2023, 00:28:36,    339,    0.0,   -2.7,   0.00,   0.00, 1038.1,    0.1, -999.0
06-02-2023, 00:28:45,    339,    0.0,   -2.7,   0.00,   0.00, 1038.1,    0.1, -999.0
06-02-2023, 00:28:55,    339,    0.0,   -2.8,   0.00,   0.00, 1038.1,    0.2, -999.0
06-02-2023, 00:29:05,    339,    0.0,   -2.8,   0.00,   0.00, 1038.1,    0.2, -999.0
06-02-2023, 00:29:15,    339,    0.0,   -2.9,   0.00,   0.00, 1038.1,    0.1, -999.0
06-02-2023, 00:29:25,    339,    0.0,   -2.7,   0.00,   0.00, 1038.1,    0.1, -999.0
06-02-2023, 00:29:35,    339,    0.0,   -2.8,   0.00,   0.00, 1038.1,    0.1, -999.0
06-02-2023, 00:29:45,    339,    0.0,   -2.7,   0.00,   0.00, 1038.1,    0.1, -999.0
06-02-2023, 00:29:55,    339,    0.0,   -2.7,   0.00,   0.00, 1038.0,    0.0, -999.0
06-02-2023, 00:30:05,    339,    0.0,   -2.8,   0.00,   0.00, 1038.0,    0.1, -999.0
06-02-2023, 00:30:15,    339,    0.0,   -2.7,   0.00,   0.00, 1038.0,    0.2, -999.0
06-02-2023, 00:30:25,    339,    0.0,   -2.7,   0.00,   0.00, 1038.1,    0.3, -999.0
06-02-2023, 00:30:35,    339,    0.0,   -2.7,   0.00,   0.00, 1038.0,    0.1, -999.0
06-02-2023, 00:30:45,    339,    0.0,   -2.7,   0.00,   0.00, 1038.0,    0.0, -999.0
06-02-2023, 00:30:55,    339,    0.0,   -2.7,   0.00,   0.00, 1038.0,    0.3, -999.0
06-02-2023, 00:31:05,    339,    0.0,   -2.7,   0.00,   0.00, 1038.1,    0.4, -999.0
06-02-2023, 00:31:15,    339,    0.0,   -2.7,   0.00,   0.00, 1038.0,    0.3, -999.0
06-02-2023, 00:31:25,    339,    0.0,   -2.8,   0.00,   0.00, 1038.0,    0.2, -999.0
06-02-2023, 00:31:35,    339,    0.0,   -2.8,   0.00,   0.00, 1038.1,    0.1, -999.0
06-02-2023, 00:31:45,    339,    0.0,   -2.9,   0.00,   0.00, 1038.0,    0.1, -999.0
06-02-2023, 00:31:55,    339,    0.0,   -2.9,   0.00,   0.00, 1038.1,    0.1, -999.0
06-02-2023, 00:32:05,    339,    0.0,   -2.8,   0.00,   0.00, 1038.1,    0.1, -999.0
06-02-2023, 00:32:15,    339,    0.0,   -2.8,   0.00,   0.00, 1038.1,    0.2, -999.0
06-02-2023, 00:32:25,    339,    0.0,   -2.8,   0.00,   0.00, 1038.1,    0.1, -999.0
06-02-2023, 00:32:35,    339,    0.0,   -2.9,   0.00,   0.00, 1038.1,    0.2, -999.0
06-02-2023, 00:32:45,    339,    0.0,   -2.8,   0.00,   0.00, 1038.1,    0.1, -999.0
06-02-2023, 00:32:55,    339,    0.0,   -2.8,   0.00,   0.00, 1038.1,    0.3, -999.0
06-02-2023, 00:33:05,    339,    0.0,   -2.9,   0.00,   0.00, 1038.1,    0.1, -999.0
06-02-2023, 00:33:15,    339,    0.0,   -2.9,   0.00,   0.00, 1038.1,    0.0, -999.0
06-02-2023, 00:33:25,    339,    0.0,   -2.9,   0.00,   0.00, 1038.1,    0.1, -999.0
06-02-2023, 00:33:35,    338,    0.0,   -2.9,   0.00,   0.00, 1038.1,    0.2, -999.0
06-02-2023, 00:33:45,    339,    0.0,   -2.9,   0.00,   0.00, 1038.2,    0.2, -999.0
06-02-2023, 00:33:55,    339,    0.0,   -2.9,   0.00,   0.00, 1038.1,    0.2, -999.0
06-02-2023, 00:34:05,    339,    0.0,   -2.9,   0.00,   0.00, 1038.1,    0.0, -999.0
06-02-2023, 00:34:15,    339,    0.0,   -3.0,   0.00,   0.00, 1038.2,    0.1, -999.0
06-02-2023, 00:34:25,    339,    0.0,   -2.9,   0.00,   0.00, 1038.2,    0.1, -999.0
06-02-2023, 00:34:35,    339,    0.0,   -3.0,   0.00,   0.00, 1038.2,    0.2, -999.0
06-02-2023, 00:34:45,    339,    0.0,   -3.0,   0.00,   0.00, 1038.2,    0.1, -999.0
06-02-2023, 00:34:54,    339,    0.0,   -3.0,   0.00,   0.00, 1038.2,    0.1, -999.0
06-02-2023, 00:35:05,    339,    0.0,   -3.0,   0.00,   0.00, 1038.2,    0.2, -999.0
06-02-2023, 00:35:15,    338,    0.0,   -3.0,   0.00,   0.00, 1038.2,    0.0, -999.0
06-02-2023, 00:35:25,    339,    0.0,   -2.9,   0.00,   0.00, 1038.2,    0.2, -999.0
06-02-2023, 00:35:34,    339,    0.0,   -2.9,   0.00,   0.00, 1038.2,    0.1, -999.0
06-02-2023, 00:35:45,    339,    0.0,   -2.9,   0.00,   0.00, 1038.2,    0.0, -999.0
06-02-2023, 00:35:55,    339,    0.0,   -2.9,   0.00,   0.00, 1038.2,    0.1, -999.0
06-02-2023, 00:36:04,    339,    0.0,   -2.9,   0.00,   0.00, 1038.2,    0.1, -999.0
06-02-2023, 00:36:14,    339,    0.0,   -2.9,   0.00,   0.00, 1038.2,    0.2, -999.0
06-02-2023, 00:36:25,    339,    0.0,   -3.0,   0.00,   0.00, 1038.2,    0.0, -999.0
06-02-2023, 00:36:35,    339,    0.0,   -3.0,   0.00,   0.00, 1038.2,    0.1, -999.0
06-02-2023, 00:36:44,    339,    0.0,   -2.9,   0.00,   0.00, 1038.2,    0.0, -999.0
06-02-2023, 00:36:54,    339,    0.0,   -2.9,   0.00,   0.00, 1038.2,    0.3, -999.0
06-02-2023, 00:37:05,    339,    0.0,   -2.9,   0.00,   0.00, 1038.2,    0.3, -999.0
06-02-2023, 00:37:15,    339,    0.0,   -2.9,   0.00,   0.00, 1038.2,    0.3, -999.0
06-02-2023, 00:37:24,    339,    0.0,   -2.9,   0.00,   0.00, 1038.2,    0.1, -999.0
06-02-2023, 00:37:34,    339,    0.0,   -2.9,   0.00,   0.00, 1038.2,    0.2, -999.0
06-02-2023, 00:37:45,    339,    0.0,   -2.9,   0.00,   0.00, 1038.2,    0.1, -999.0
06-02-2023, 00:37:54,    339,    0.0,   -2.9,   0.00,   0.00, 1038.2,    0.0, -999.0
06-02-2023, 00:38:04,    339,    0.0,   -3.0,   0.00,   0.00, 1038.2,    0.2, -999.0
06-02-2023, 00:38:15,    339,    0.0,   -2.9,   0.00,   0.00, 1038.2,    0.2, -999.0
06-02-2023, 00:38:24,    339,    0.0,   -2.9,   0.00,   0.00, 1038.2,    0.2, -999.0
06-02-2023, 00:38:34,    339,    0.0,   -2.9,   0.00,   0.00, 1038.2,    0.0, -999.0
06-02-2023, 00:38:44,    339,    0.0,   -2.9,   0.00,   0.00, 1038.1,    0.1, -999.0
06-02-2023, 00:38:55,    339,    0.0,   -2.8,   0.00,   0.00, 1038.2,    0.1, -999.0
06-02-2023, 00:39:04,    339,    0.0,   -2.7,   0.00,   0.00, 1038.1,    0.1, -999.0
06-02-2023, 00:39:14,    339,    0.0,   -2.7,   0.00,   0.00, 1038.1,    0.1, -999.0
06-02-2023, 00:39:24,    339,    0.0,   -2.7,   0.00,   0.00, 1038.2,    0.1, -999.0
06-02-2023, 00:39:34,    339,    0.0,   -2.7,   0.00,   0.00, 1038.2,    0.1, -999.0
06-02-2023, 00:39:44,    339,    0.0,   -2.7,   0.00,   0.00, 1038.1,    0.1, -999.0
06-02-2023, 00:39:54,    339,    0.0,   -2.8,   0.00,   0.00, 1038.1,    0.1, -999.0
06-02-2023, 00:40:04,    339,    0.0,   -2.8,   0.00,   0.00, 1038.1,    0.0, -999.0
06-02-2023, 00:40:14,    339,    0.0,   -2.7,   0.00,   0.00, 1038.1,    0.1, -999.0
06-02-2023, 00:40:24,    339,    0.0,   -2.7,   0.00,   0.00, 1038.1,    0.1, -999.0
06-02-2023, 00:40:34,    339,    0.0,   -2.6,   0.00,   0.00, 1038.1,    0.0, -999.0
06-02-2023, 00:40:44,    339,    0.0,   -2.6,   0.00,   0.00, 1038.1,    0.1, -999.0
06-02-2023, 00:40:54,    339,    0.0,   -2.6,   0.00,   0.00, 1038.1,    0.1, -999.0
06-02-2023, 00:41:04,    339,    0.0,   -2.6,   0.00,   0.00, 1038.2,    0.1, -999.0
06-02-2023, 00:41:14,    339,    0.0,   -2.7,   0.00,   0.00, 1038.1,    0.1, -999.0
06-02-2023, 00:41:24,    339,    0.0,   -2.5,   0.00,   0.00, 1038.1,    0.1, -999.0
06-02-2023, 00:41:34,    339,    0.0,   -2.6,   0.00,   0.00, 1038.1,    0.1, -999.0
06-02-2023, 00:41:44,    339,    0.0,   -2.6,   0.00,   0.00, 1038.1,    0.1, -999.0
06-02-2023, 00:41:54,    339,    0.0,   -2.6,   0.00,   0.00, 1038.1,    0.2, -999.0
06-02-2023, 00:42:04,    339,    0.0,   -2.6,   0.00,   0.00, 1038.1,    0.1, -999.0
06-02-2023, 00:42:14,    339,    0.0,   -2.6,   0.00,   0.00, 1038.1,    0.2, -999.0
06-02-2023, 00:42:24,    339,    0.0,   -2.6,   0.00,   0.00, 1038.2,    0.1, -999.0
06-02-2023, 00:42:34,    339,    0.0,   -2.6,   0.00,   0.00, 1038.2,    0.3, -999.0
06-02-2023, 00:42:44,    339,    0.0,   -2.8,   0.00,   0.00, 1038.2,    0.1, -999.0
06-02-2023, 00:42:54,    339,    0.0,   -2.8,   0.00,   0.00, 1038.1,    0.1, -999.0
06-02-2023, 00:43:04,    339,    0.0,   -2.9,   0.00,   0.00, 1038.1,    0.1, -999.0
06-02-2023, 00:43:14,    339,    0.0,   -2.8,   0.00,   0.00, 1038.2,    0.2, -999.0
06-02-2023, 00:43:24,    339,    0.0,   -2.9,   0.00,   0.00, 1038.2,    0.1, -999.0
06-02-2023, 00:43:34,    339,    0.0,   -2.9,   0.00,   0.00, 1038.2,    0.1, -999.0
06-02-2023, 00:43:44,    339,    0.0,   -2.9,   0.00,   0.00, 1038.2,    0.2, -999.0
06-02-2023, 00:43:54,    339,    0.0,   -2.9,   0.00,   0.00, 1038.2,    0.3, -999.0
06-02-2023, 00:44:04,    339,    0.0,   -3.0,   0.00,   0.00, 1038.1,    0.1, -999.0
06-02-2023, 00:44:14,    339,    0.0,   -2.9,   0.00,   0.00, 1038.2,    0.2, -999.0
06-02-2023, 00:44:24,    339,    0.0,   -2.9,   0.00,   0.00, 1038.2,    0.1, -999.0
06-02-2023, 00:44:34,    339,    0.0,   -3.0,   0.00,   0.00, 1038.2,    0.1, -999.0
06-02-2023, 00:44:44,    339,    0.0,   -3.0,   0.00,   0.00, 1038.2,    0.1, -999.0
06-02-2023, 00:44:54,    339,    0.0,   -3.0,   0.00,   0.00, 1038.2,    0.2, -999.0
06-02-2023, 00:45:04,    339,    0.0,   -3.0,   0.00,   0.00, 1038.2,    0.1, -999.0
06-02-2023, 00:45:14,    339,    0.0,   -3.0,   0.00,   0.00, 1038.2,    0.0, -999.0
06-02-2023, 00:45:24,    339,    0.0,   -3.0,   0.00,   0.00, 1038.2,    0.1, -999.0
06-02-2023, 00:45:34,    339,    0.0,   -3.1,   0.00,   0.00, 1038.2,    0.1, -999.0
06-02-2023, 00:45:44,    339,    0.0,   -3.0,   0.00,   0.00, 1038.2,    0.1, -999.0
06-02-2023, 00:45:54,    339,    0.0,   -3.0,   0.00,   0.00, 1038.2,    0.2, -999.0
06-02-2023, 00:46:03,    339,    0.0,   -3.0,   0.00,   0.00, 1038.2,    0.1, -999.0
06-02-2023, 00:46:14,    339,    0.0,   -3.0,   0.00,   0.00, 1038.2,    0.1, -999.0
06-02-2023, 00:46:24,    339,    0.0,   -3.0,   0.00,   0.00, 1038.2,    0.0, -999.0
06-02-2023, 00:46:34,    339,    0.0,   -3.0,   0.00,   0.00, 1038.2,    0.2, -999.0
06-02-2023, 00:46:43,    339,    0.0,   -3.0,   0.00,   0.00, 1038.2,    0.0, -999.0